Total_Precipitation_Accumulation
1.38 1.36 1.40 1.59 1.60 1.66 1.64 1.37 1.15 1.18 1.20 1.19 1.04 1.01 1.08 1.09 1.11 1.24 1.35 1.28 1.25 1.38 1.57 1.65 1.68 1.63 1.61 1.61 1.59 1.61 1.57 1.49 1.40 1.30 1.13 1.00 0.93 0.90 0.90 0.89 0.88 0.85 0.85
1.58 1.63 1.66 1.73 1.74 1.90 1.92 1.67 1.48 1.55 1.50 1.46 1.28 1.20 1.19 1.26 1.26 1.34 1.40 1.38 1.24 1.20 1.36 1.59 1.73 1.77 1.80 1.79 1.70 1.64 1.62 1.58 1.53 1.38 1.21 1.12 1.06 0.99 0.93 0.93 0.94 0.91 0.86
1.93 2.03 2.10 2.04 1.97 1.94 1.98 1.89 1.76 1.74 1.72 1.55 1.44 1.43 1.45 1.34 1.27 1.41 1.51 1.54 1.44 1.36 1.41 1.48 1.59 1.75 1.96 2.02 1.95 1.85 1.77 1.71 1.62 1.51 1.40 1.28 1.16 1.10 1.03 0.99 0.98 0.94 0.89
2.12 2.36 2.42 2.22 2.09 2.02 2.11 2.17 2.05 2.02 2.00 1.93 1.67 1.49 1.53 1.50 1.40 1.42 1.45 1.50 1.61 1.55 1.53 1.46 1.49 1.60 1.76 1.88 1.99 2.02 1.98 1.88 1.79 1.69 1.58 1.47 1.39 1.26 1.15 1.08 1.02 0.98 0.97
2.17 2.38 2.50 2.46 2.24 2.22 2.30 2.23 2.39 2.28 2.26 2.09 1.76 1.57 1.43 1.34 1.37 1.35 1.37 1.43 1.47 1.47 1.50 1.51 1.52 1.56 1.67 1.78 1.85 1.93 1.96 1.95 1.86 1.74 1.67 1.62 1.51 1.36 1.26 1.21 1.14 1.08 1.07
2.31 2.53 2.59 2.63 2.51 2.53 2.61 2.59 2.58 2.43 2.22 2.07 1.81 1.64 1.42 1.20 1.18 1.24 1.26 1.25 1.22 1.22 1.27 1.33 1.44 1.43 1.52 1.60 1.72 1.92 2.16 2.20 2.07 1.90 1.81 1.72 1.59 1.42 1.30 1.29 1.24 1.19 1.16
2.97 3.11 3.05 2.97 2.79 2.72 2.73 2.67 2.53 2.44 2.30 2.25 2.13 1.86 1.51 1.20 1.07 1.04 1.10 1.12 1.07 1.07 1.11 1.19 1.25 1.28 1.33 1.38 1.46 1.66 2.01 2.25 2.21 2.08 1.95 1.82 1.72 1.61 1.52 1.46 1.41 1.35 1.26
3.58 3.53 3.44 3.20 2.96 2.78 2.64 2.51 2.38 2.28 2.15 2.12 2.12 2.06 1.77 1.47 1.15 0.93 1.02 1.05 1.03 1.06 1.06 1.04 1.07 1.08 1.07 1.18 1.32 1.47 1.66 1.79 1.95 2.08 2.03 1.87 1.77 1.70 1.66 1.64 1.61 1.51 1.41
3.40 3.30 3.21 3.08 2.89 2.71 2.55 2.51 2.42 2.35 2.22 2.17 2.17 2.22 2.06 1.68 1.28 1.04 0.94 0.98 1.02 1.06 1.09 1.07 1.02 1.01 1.04 1.09 1.17 1.38 1.52 1.54 1.63 1.77 1.92 1.89 1.77 1.72 1.71 1.70 1.69 1.67 1.63
3.13 2.99 2.99 2.95 2.81 2.62 2.45 2.31 2.27 2.27 2.32 2.22 2.10 1.93 1.79 1.59 1.47 1.29 1.11 1.03 1.00 1.01 1.03 1.02 0.99 0.99 1.04 1.10 1.24 1.38 1.42 1.40 1.43 1.47 1.53 1.60 1.63 1.64 1.65 1.65 1.68 1.73 1.77
2.87 2.73 2.71 2.60 2.43 2.29 2.15 2.02 1.95 1.96 2.00 2.02 1.98 1.90 1.82 1.67 1.52 1.41 1.30 1.19 1.12 1.04 0.99 0.98 0.97 0.99 1.03 1.06 1.14 1.23 1.30 1.24 1.25 1.29 1.35 1.42 1.47 1.55 1.64 1.72 1.80 1.89 1.97
2.69 2.45 2.21 2.12 2.09 1.93 1.72 1.59 1.53 1.52 1.56 1.63 1.72 1.72 1.64 1.61 1.57 1.53 1.42 1.30 1.25 1.21 1.12 1.10 1.04 1.00 1.04 1.01 1.02 1.18 1.17 1.16 1.14 1.14 1.17 1.24 1.26 1.31 1.41 1.53 1.70 1.87 2.01
2.23 1.99 1.78 1.67 1.63 1.61 1.50 1.37 1.29 1.22 1.21 1.28 1.34 1.45 1.49 1.46 1.42 1.46 1.52 1.49 1.35 1.25 1.13 1.07 0.96 0.88 0.90 0.98 1.08 1.11 1.03 1.02 0.99 0.97 1.00 1.09 1.16 1.18 1.15 1.21 1.32 1.50 1.64
1.74 1.54 1.40 1.29 1.18 1.10 1.06 1.07 1.11 1.09 1.08 1.13 1.15 1.26 1.34 1.34 1.35 1.37 1.39 1.50 1.51 1.35 1.18 1.05 0.94 0.86 0.85 0.88 0.98 0.88 0.86 0.87 0.84 0.86 0.89 0.95 1.02 1.13 1.11 1.05 1.01 1.06 1.15
1.28 1.17 1.08 1.03 0.96 0.91 0.87 0.86 0.90 0.95 0.96 0.99 1.03 1.09 1.14 1.14 1.16 1.22 1.26 1.33 1.42 1.38 1.26 1.07 1.01 0.96 0.93 0.91 1.00 0.86 0.86 0.82 0.80 0.87 0.90 0.96 1.03 1.16 1.21 1.10 0.99 0.90 0.87
1.00 0.91 0.87 0.86 0.82 0.79 0.78 0.82 0.83 0.84 0.86 0.85 0.84 0.83 0.84 0.84 0.89 0.92 1.00 1.09 1.19 1.27 1.24 1.04 0.95 0.98 0.96 0.88 1.03 0.94 0.90 0.88 0.85 1.06 1.20 1.15 1.12 1.28 1.43 1.37 1.19 1.05 0.98
0.77 0.75 0.71 0.68 0.68 0.69 0.68 0.70 0.67 0.65 0.63 0.61 0.61 0.63 0.67 0.69 0.73 0.75 0.78 0.91 1.09 1.21 1.28 1.09 0.95 0.97 1.01 1.00 1.05 1.00 0.92 0.89 1.00 1.40 1.63 1.81 1.56 1.46 1.55 1.50 1.37 1.17 1.04
0.70 0.68 0.62 0.57 0.54 0.52 0.50 0.48 0.47 0.50 0.51 0.51 0.52 0.56 0.58 0.60 0.62 0.67 0.72 0.80 0.95 1.13 1.31 1.28 1.08 1.06 1.06 1.05 1.12 1.11 0.97 0.84 0.90 1.34 1.67 1.99 1.96 1.76 1.77 1.61 1.42 1.19 1.06
0.62 0.58 0.54 0.52 0.46 0.45 0.42 0.39 0.40 0.43 0.43 0.44 0.48 0.53 0.57 0.65 0.68 0.69 0.75 0.79 0.88 1.00 1.21 1.32 1.23 1.19 1.21 1.22 1.33 1.24 1.08 1.03 0.85 1.09 1.52 1.86 2.05 2.12 2.21 2.05 1.74 1.37 1.10
0.56 0.58 0.57 0.48 0.39 0.35 0.34 0.32 0.33 0.35 0.36 0.38 0.43 0.51 0.57 0.68 0.75 0.78 0.77 0.80 0.86 0.96 1.10 1.27 1.30 1.29 1.32 1.35 1.40 1.38 1.22 1.08 0.95 0.93 1.37 1.86 2.22 2.26 2.44 2.55 2.23 1.73 1.29
0.52 0.51 0.52 0.50 0.43 0.35 0.31 0.30 0.30 0.33 0.39 0.44 0.47 0.49 0.53 0.64 0.73 0.70 0.66 0.69 0.81 1.00 1.08 1.23 1.30 1.29 1.25 1.34 1.33 1.18 1.10 1.01 0.90 0.87 1.07 1.48 2.16 2.52 2.59 2.67 2.55 2.03 1.53
0.56 0.50 0.49 0.48 0.45 0.34 0.33 0.33 0.30 0.36 0.43 0.48 0.51 0.52 0.50 0.52 0.51 0.52 0.58 0.64 0.74 0.95 1.24 1.42 1.38 1.31 1.18 1.16 1.17 1.12 1.11 1.08 1.03 0.82 0.81 1.12 1.68 2.41 2.67 2.67 2.62 2.04 1.50
0.55 0.49 0.45 0.47 0.45 0.38 0.35 0.32 0.32 0.37 0.47 0.53 0.56 0.56 0.46 0.40 0.48 0.53 0.57 0.62 0.73 0.87 1.13 1.46 1.55 1.32 1.23 1.18 1.21 1.21 1.23 1.26 1.15 0.85 0.84 1.12 1.51 2.17 2.37 2.40 2.30 1.74 1.32
0.53 0.53 0.51 0.50 0.46 0.38 0.35 0.34 0.33 0.38 0.49 0.51 0.52 0.53 0.56 0.54 0.50 0.52 0.57 0.68 0.82 0.95 1.05 1.14 1.43 1.27 1.06 1.04 1.09 1.12 1.19 1.21 1.12 0.92 0.88 1.16 1.49 1.93 1.93 2.01 1.95 1.53 1.21
0.52 0.47 0.43 0.44 0.46 0.44 0.38 0.35 0.33 0.40 0.47 0.48 0.46 0.45 0.45 0.48 0.51 0.61 0.75 0.96 1.08 1.20 1.16 1.30 1.45 1.40 1.25 1.15 1.02 1.02 1.20 1.23 1.18 1.03 0.92 1.09 1.36 1.50 1.60 1.69 1.56 1.40 1.17
0.46 0.39 0.36 0.38 0.40 0.38 0.28 0.26 0.28 0.35 0.42 0.46 0.49 0.50 0.45 0.42 0.52 0.68 0.92 1.19 1.31 1.38 1.24 1.34 1.57 1.61 1.43 1.38 1.33 1.20 1.26 1.25 1.18 1.16 0.94 0.96 1.15 1.17 1.42 1.47 1.34 1.22 1.15